Location: Unspecified
(35.7250°N, 0.0000°E)
Time: 13:43:08
(UTC+00:00)

Explorer 7 - Pass Details

Date: 16 August 2020
Orbit: 485 x 679 km, 50.3° (Epoch: 21 September)

Event Time Altitude Azimuth Distance (km) Brightness Sun altitude
Rises 20:50:40 0° 315° (NW) 2,635 11.7 -22.9°
Reaches altitude 10° 20:55:10 10° 3° (N) 1,702 9.7 -23.6°
Maximum altitude 20:55:30 10° 8° (N) 1,693 9.7 -23.7°
Drops below altitude 10° 20:55:50 10° 13° (NNE) 1,696 9.6 -23.8°
Enters shadow 20:57:15 - 33° (NNE) 1,828 9.5 -24.0°
